Regional Weather Roundup
Issued by NWS

Home | Current Version | Previous Version | Text Only | Print | Product List | Glossary Off
Versions: 1 2 3 4 5 6 7 8 9 10 11 12 13 14 15 16 17 18 19 20 21 22 23 24 25 26 27 28 29 30 31 32 33 34 35 36 37 38 39 40 41 42 43 44 45 46 47 48 49 50

000
ASUS45 KCYS 231510
RWRWY

WYOMING REGIONAL WEATHER ROUNDUP
NATIONAL WEATHER SERVICE CHEYENNE WY
900 AM MDT FRI JUN 23 2017

NOTE:  "FAIR" INDICATES FEW OR NO CLOUDS BELOW 12,000 FEET
WITH NO SIGNIFICANT WEATHER AND/OR OBSTRUCTIONS TO VISIBILITY.

WYZ001-231600-
YELLOWSTONE NATIONAL PARK

CITY           SKY/WX    TMP DP  RH WIND       PRES   REMARKS
LK YELLOWSTONE   N/A     44  31  60 VRB3      30.37S
W YELLOWSTONE  NOT AVBL

$$
WYZ002>013-054>058-071-098>099-231600-
NORTHERN WYOMING

CITY           SKY/WX    TMP DP  RH WIND       PRES   REMARKS
JACKSON        SUNNY     50  34  53 CALM      30.31S
CODY           FAIR      55  25  31 VRB3      30.32F
GREYBULL       FAIR      59  29  31 NW9       30.27F
WORLAND        FAIR      57  32  38 NW5       30.29S
SHERIDAN       FAIR      57  37  47 N13       30.29S
BUFFALO        FAIR      53  37  54 N9        30.30F
GILLETTE       FAIR      55  36  48 NW14G22   30.27F
NEWCASTLE      FAIR      52  32  46 NW21G30   30.26R

$$
WYZ014>020-022>026-101>103-231600-
CENTRAL WYOMING

CITY           SKY/WX    TMP DP  RH WIND       PRES   REMARKS
BIG PINEY      FAIR      51  32  48 S10       30.34S
PINEDALE       FAIR      50  30  46 NW8       30.35S
DUBOIS         FAIR      46  32  57 E6        30.35S
LANDER         FAIR      54  33  45 NE3       30.31S
RIVERTON       FAIR      53  32  44 CALM      30.32S
CASPER         FAIR      55  34  45 CALM      30.30S
DOUGLAS        FAIR      56  38  50 N9        30.29F

$$
WYZ021-027>030-104>119-231600-
SOUTHERN WYOMING

CITY           SKY/WX    TMP DP  RH WIND       PRES   REMARKS
EVANSTON       FAIR      55  33  43 E12       30.31R
KEMMERER         N/A     54  28  37 E6        30.33S
FORT BRIDGER   FAIR      55  32  41 E7        30.33F
ROCK SPRINGS   FAIR      54  29  38 E10       30.31F
DIXON          FAIR      58  37  45 W5        30.30S
RAWLINS        FAIR      54  33  45 NE12      30.31F
SARATOGA       FAIR      54  34  47 W3        30.31S
LARAMIE        CLOUDY    50  36  58 S7        30.31S
CHEYENNE       CLOUDY    51  37  58 N8        30.32R
TORRINGTON     CLOUDY    57  37  47 N7        30.26S
PINE BLUFFS    CLOUDY    52  37  58 N7        30.30S

$$



USA.gov is the U.S. government's official web portal to all federal, state and local government web resources and services.